Location: Acton
(51.4942°N, 0.2232°W)
Time: 01:58:23
(UTC+00:00)

N. Korean satellite - Visible Passes

Search period start: 19 January 2022 00:00
Search period end: 29 January 2022 00:00
Orbit: 446 x 492 km, 97.3° (Epoch: 18 January)

Date Brightness Start Highest point End Pass type
(mag) Time Alt. Az. Time Alt. Az. Time Alt. Az.
19 Jan 9.2 04:31:11 10° NE 04:33:16 20° ENE 04:33:16 20° ENE visible
19 Jan 7.1 06:03:54 10° N 06:07:15 37° WNW 06:07:20 37° WNW visible
20 Jan 10.0 04:03:43 10° ENE 04:04:11 11° E 04:04:11 11° E visible
20 Jan 6.4 05:34:36 10° N 05:38:14 78° WNW 05:38:15 78° WNW visible
21 Jan 7.5 05:05:33 10° NNE 05:09:05 49° E 05:09:10 48° ESE visible
21 Jan 8.1 06:39:27 10° NNW 06:41:55 18° WNW 06:43:13 15° W visible
21 Jan 9.6 17:18:28 10° SW 17:20:57 18° W 17:23:28 10° NW visible
22 Jan 8.9 04:36:47 10° NE 04:39:48 24° E 04:40:04 24° E visible
22 Jan 7.3 06:09:43 10° N 06:12:59 32° WNW 06:14:08 26° WSW visible
23 Jan 9.8 04:08:47 10° ENE 04:10:22 12° E 04:10:58 12° E visible
23 Jan 6.4 05:40:19 10° N 05:43:56 67° WNW 05:45:01 41° SW visible
24 Jan 7.2 05:11:08 10° NNE 05:14:44 57° E 05:15:55 37° SSE visible
24 Jan 8.2 06:45:15 10° NNW 06:47:29 16° WNW 06:49:44 10° W visible
24 Jan 9.7 17:24:20 10° SW 17:26:36 16° W 17:28:54 10° NW visible
25 Jan 8.6 04:42:15 10° NE 04:45:25 27° E 04:46:49 21° SE visible
25 Jan 7.4 06:15:22 10° N 06:18:32 28° WNW 06:20:53 15° WSW visible
26 Jan 9.7 04:13:57 10° NE 04:15:58 14° E 04:17:42 11° ESE visible
26 Jan 6.6 05:45:52 10° N 05:49:27 57° WNW 05:51:46 20° SW visible
27 Jan 6.9 05:16:35 10° NNE 05:20:14 66° ESE 05:22:40 19° S visible
27 Jan 8.3 06:50:56 10° NNW 06:52:54 14° WNW 06:54:52 10° W visible
27 Jan 9.8 17:30:04 10° SW 17:32:05 14° W 17:34:07 10° NW visible
28 Jan 8.4 04:47:34 10° NNE 04:50:52 31° E 04:53:34 13° SSE visible
28 Jan 7.6 06:20:52 10° N 06:23:55 25° WNW 06:26:57 10° WSW visible
